GSAT0205 (PRN E24)

Last updated on Nov. 22, 2019, 4:20 a.m. UTC

1 40889U 15045A   19324.93334013 -.00000026  00000-0  00000+0 0  9997
2 40889  56.3216 287.8645 0003874 342.8781  17.0941  1.70474488 26091
UTC
Height (km)
Latitude
Longitude
Inclination
Orbital Period
UTC large
Height (km)
Speed (km/s)
/
Latitude / Longitude
Inclination (degrees)
Orbital Period (minutes)
Azimuth
Elevation
Range (km)
Doppler Factor
iOS Compass Heading
iOS Angle

Next 30 passes for location: Hong Kong

Rise time Rise Azimuth (degrees) Set time Set Azimuth (degrees) Duration Max altitude (degrees)

No matching passes for this satellites